Weather in Chapaev

Kazakhstan     50°11′26″N   51°10′14″E
temp.,
°C
wind,
m/s
gust,
m/s
humid.,
%
clouds,
%
prec.,
mm/h
press.,
hPa
HPBL,
m
27 september, mon
mon2723:00+12nw1177100 0.4 1004114
02:00+11sse6987100 3.3 1002691
05:00+11se5893100 6.9 1000346
08:00+11wsw698696 3.4 1000613
11:00+12sw6775100 3.5 1001856
14:00+12ssw3376100 0.2 1002737
17:00+12n2277100 0.5 1003529
20:00+11nne3582100 0.3 1005436
28 september, tue
tue2823:00+10n6979100 0.4 1007373
02:00+9nne61078100 0.0 1009573
05:00+8nne7107692 0.0 1012697
08:00+4n610755 0.0 1014488
11:00+7n676342 0.0 1016957
14:00+7nne6761100 0.0 10171267
17:00+7nne6768100 0.1 10191130
20:00+7nne5865100 0.1 10201042
29 september, wed
wed2923:00+7n4761100 0.1 1021327
02:00+7n486399 0.0 1022245
05:00+6nne476691 0.0 1023223
08:00+5nne3671100 0.0 1024152
11:00+8nne565386 0.0 1025874
14:00+10nne55439 0.0 10251518
17:00+10nne553967 0.0 10261727
20:00+8n344417 0.0 102759
30 september, thu
thu3023:00+6n35493 0.0 102884
02:00+5n34547 0.0 102867
05:00+4nne34575 0.0 102961
08:00+4nne35605 0.0 103089
11:00+9ne45431 0.0 1031610
14:00+11nne44355 0.0 10311822
17:00+12nne33335 0.0 10311895
20:00+9n33439 0.0 103142
1 october, fri
fri123:00+7n344879 0.0 103257
02:00+6nne33510 0.0 103241
05:00+5n22540 0.0 103221
08:00+4nnw22570 0.0 103325
11:00+9nnw23410 0.0 1033476
14:00+12nw33375 0.0 10331691
17:00+13nw333635 0.0 10321812
20:00+9nnw335147 0.0 103249